Weather History for Opa Locka, FL

Change the Weather History Date:

Friday, February 1, 2013

  Actual Average Record
Temperature  
Mean Temperature 64 °F -  
Max Temperature 75 °F 76 °F 84 °F (1959)
Min Temperature 54 °F 58 °F 38 °F (1966)
Growing Degree Days 14 (Base 50)    
Moisture  
Dew Point 46 °F    
Average Humidity 53    
Maximum Humidity 70    
Minimum Humidity 38    
Precipitation  
Precipitation 0.00 in - - ()
Sea Level Pressure  
Sea Level Pressure 30.23 in    
Wind  
Wind Speed 11 mph (North)    
Max Wind Speed 16 mph    
Max Gust Speed 24 mph    
Visibility 10 miles    
Events      
Averages and records for this station are not official NWS values.
T = Trace of Precipitation, MM = Missing Value Source: NWS Daily Summary

Daily Weather History Graph

Daily Weather History Graph

Search for Another Location

Airport:

Trip Planner

Search our weather history database for the weather conditions in past years. The results will help you decide how hot, cold, wet, or windy it might be!

Date:

Astronomy

Feb. 01, 2013 Rise Set
Actual Time 7:04 AM EST 6:04 PM EST
Civil Twilight 6:40 AM EST 6:28 PM EST
Nautical Twilight 6:13 AM EST 6:56 PM EST
Astronomical Twilight 5:46 AM EST 7:23 PM EST
Moon 11:27 PM EST (2/1) 10:16 AM EST (2/1)
Length of Visible Light 11h 48m
Length of Day
10h 59m
Waning Gibbous, 70% of the Moon is Illuminated
Feb 1
Waning Gibbous
Feb 3
Last Quarter
Feb 10
New
Feb 17
First Quarter
Feb 25
Full

Hourly Weather History & Observations

Time (EST) Temp. Dew Point Humidity Pressure Visibility Wind Dir Wind Speed Gust Speed Precip Events Conditions
12:53 AM 61.0 °F 39.9 °F 46% 30.18 in 10.0 mi NNW 8.1 mph - N/A   Clear
1:53 AM 59.0 °F 39.9 °F 49% 30.18 in 10.0 mi North 11.5 mph - N/A   Clear
2:53 AM 57.9 °F 39.0 °F 49% 30.18 in 10.0 mi North 11.5 mph - N/A   Clear
3:53 AM 57.0 °F 37.9 °F 49% 30.18 in 10.0 mi North 10.4 mph - N/A   Clear
4:53 AM 55.0 °F 37.9 °F 53% 30.18 in 10.0 mi NNW 10.4 mph - N/A   Clear
5:53 AM 54.0 °F 37.9 °F 55% 30.19 in 10.0 mi North 12.7 mph - N/A   Clear
6:53 AM 54.0 °F 39.9 °F 59% 30.21 in 10.0 mi North 9.2 mph - N/A   Clear
7:53 AM 55.0 °F 42.1 °F 62% 30.24 in 10.0 mi North 11.5 mph - N/A   Clear
8:53 AM 60.1 °F 45.0 °F 57% 30.25 in 10.0 mi North 10.4 mph - N/A   Clear
9:53 AM 64.0 °F 46.0 °F 52% 30.28 in 10.0 mi NNW 15.0 mph - N/A   Clear
10:53 AM 70.0 °F 48.9 °F 47% 30.27 in 10.0 mi NNW 12.7 mph - N/A   Clear
11:53 AM 73.9 °F 51.1 °F 45% 30.26 in 10.0 mi NE 15.0 mph - N/A   Clear
12:53 PM 73.9 °F 48.9 °F 41% 30.25 in 10.0 mi NNE 11.5 mph 21.9 mph N/A   Partly Cloudy
1:53 PM 75.0 °F 48.0 °F 38% 30.23 in 10.0 mi NNE 13.8 mph 23.0 mph N/A   Scattered Clouds
2:53 PM 73.0 °F 51.1 °F 46% 30.22 in 10.0 mi NE 12.7 mph - N/A   Mostly Cloudy
3:53 PM 72.0 °F 51.1 °F 48% 30.21 in 10.0 mi NE 13.8 mph 24.2 mph N/A   Mostly Cloudy
4:53 PM 72.0 °F 51.1 °F 48% 30.22 in 10.0 mi ENE 13.8 mph 23.0 mph N/A   Scattered Clouds
5:53 PM 70.0 °F 50.0 °F 49% 30.23 in 10.0 mi NE 16.1 mph 24.2 mph N/A   Mostly Cloudy
6:53 PM 68.0 °F 50.0 °F 52% 30.23 in 10.0 mi NE 11.5 mph - N/A   Clear
7:53 PM 66.9 °F 53.1 °F 61% 30.24 in 10.0 mi North 8.1 mph - N/A   Mostly Cloudy
8:53 PM 64.0 °F 52.0 °F 65% 30.25 in 10.0 mi North 6.9 mph - N/A   Scattered Clouds
9:53 PM 63.0 °F 52.0 °F 67% 30.25 in 10.0 mi North 6.9 mph - N/A   Mostly Cloudy
10:53 PM 61.0 °F 51.1 °F 70% 30.25 in 10.0 mi North 5.8 mph - N/A   Partly Cloudy
11:53 PM 60.1 °F 50.0 °F 69% 30.25 in 10.0 mi North 5.8 mph - N/A   Partly Cloudy